Regional Weather Roundup
Issued by NWS

Home | Current Version | Previous Version | Text Only | Print | Product List | Glossary On
Versions: 1 2 3 4 5 6 7 8 9 10 11 12 13 14 15 16 17 18 19 20 21 22 23 24 25 26 27
000
ASUS42 KFFC 201403
RWRGA
WEATHER ROUNDUP FOR GEORGIA
NATIONAL WEATHER SERVICE PEACHTREE CITY GA
1000 AM EDT SUN APR 20 2014

NOTE: "FAIR" INDICATES FEW OR NO CLOUDS BELOW 12,000 FEET WITH NO
SIGNIFICANT WEATHER AND/OR OBSTRUCTIONS TO VISIBILITY.

* = USE WITH CAUTION. THE STATIONS MARKED WITH AN ASTERISK MAY NOT
REPORT WEATHER SUCH AS PRECIPITATION, FOG, OR THUNDER AND ARE NOT
QUALITY CONTROLLED BY NWS.

THE REMARK "TC" DENOTES TEMPERATURE READING IN DEGREES CELSIUS.

GAZ001>058-201500-
NORTH GEORGIA

CITY           SKY/WX    TMP DP  RH WIND       PRES   REMARKS
ATLANTA        MOSUNNY   60  41  49 NE18G24   30.23F
ATHENS         SUNNY     60  40  47 E18G29    30.23R
CHAMBLEE       SUNNY     60  37  42 E10G21    30.24R
PEACHTREE CITY CLOUDY    59  43  55 E9G16     30.24S
ROME           SUNNY     60  50  69 CALM      30.25S
WEST ATLANTA   SUNNY     60  41  49 NE10G20   30.24S
GAINESVILLE    SUNNY     59  36  42 NE21G29   30.25R
CARTERSVILLE   SUNNY     62  41  46 NE9       30.26S


CITY           SKY/WX    TMP DP  RH WIND       PRES   REMARKS
DALTON*        SUNNY     55  52  88 CALM      30.26S
LAWRENCEVILLE* SUNNY     59  37  44 NE12G23   30.23R
KENNESAW*      MOSUNNY   59  43  55 E9        30.26S
$$

GAZ059>098-102>109-201500-
CENTRAL GEORGIA

CITY           SKY/WX    TMP DP  RH WIND       PRES   REMARKS
AUGUSTA-BUSH   CLOUDY    56  47  71 N10       30.20R
AUGUSTA-DANIEL CLOUDY    56  46  69 N10       30.21R
COLUMBUS       CLOUDY    58  44  60 E15G23    30.20S
MACON          CLOUDY    54  46  74 NE9       30.21R


CITY           SKY/WX    TMP DP  RH WIND       PRES   REMARKS
LAGRANGE*      MOSUNNY   59  45  59 E8G22     30.22S
SYLVANIA*      CLOUDY    54  52  92 NE15      30.16R FOG
MILLEDGEVILLE* CLOUDY    61  37  41 E10G16    30.21S
$$

GAZ099>101-110>166-201500-
SOUTH GEORGIA

CITY           SKY/WX    TMP DP  RH WIND       PRES   REMARKS
SAVANNAH       LGT RAIN  56  52  86 N17G28    30.11R FOG
VALDOSTA       CLOUDY    59  52  77 N9        30.14R
ALMA           CLOUDY    53  50  89 N7        30.14R
ST SIMONS      LGT RAIN  54  52  93 N13       30.11R
FT STEWART     CLOUDY    54  54 100 N8        30.10R
ALBANY         CLOUDY    54  50  86 NE12      30.20R
HUNTER AFB     CLOUDY    54  52  92 N10G20    30.09R
MOODY AFB      CLOUDY    54  54  99 N15       30.14R
BRUNSWICK      CLOUDY    54  54 100 N6        30.11R


CITY           SKY/WX    TMP DP  RH WIND       PRES   REMARKS
BAINBRIDGE*    CLOUDY    59  54  82 N10       30.18R
MOULTRIE*      CLOUDY    54  52  94 NE6       30.16R
VIDALIA*       CLOUDY    54  50  87 NE10      30.15S
DOUGLAS*       CLOUDY    54  52  94 NE14      30.16R
$$



USA.gov is the U.S. government's official web portal to all federal, state and local government web resources and services.